QPF
0.09 0.09 0.09 0.07 0.07 0.06 0.07 0.11 0.12 0.06 0.03 0.03 0.03 0.03 0.02 0.01 0.01 0.02 0.01 0.03 0.03 0.02 0.03 0.04 0.05 0.04 0.04 0.04 0.03 0.03 0.03 0.03 0.02 0.03 0.04 0.05 0.04 0.03 0.04 0.04 0.02 0.01 0.02
0.04 0.04 0.06 0.06 0.10 0.08 0.06 0.09 0.12 0.07 0.05 0.04 0.03 0.03 0.02 0.02 0.02 0.02 0.02 0.04 0.03 0.03 0.03 0.03 0.04 0.04 0.04 0.05 0.03 0.03 0.02 0.03 0.03 0.04 0.04 0.03 0.04 0.04 0.04 0.04 0.03 0.02 0.02
0.02 0.03 0.03 0.04 0.05 0.04 0.02 0.02 0.04 0.06 0.05 0.03 0.02 0.02 0.02 0.03 0.03 0.03 0.03 0.03 0.03 0.04 0.04 0.04 0.03 0.03 0.03 0.04 0.03 0.03 0.02 0.03 0.04 0.05 0.04 0.03 0.04 0.04 0.04 0.04 0.05 0.04 0.03
0.01 0.01 0.01 0.01 0.02 0.03 0.03 0.03 0.03 0.06 0.04 0.02 0.02 0.02 0.03 0.03 0.03 0.03 0.03 0.02 0.03 0.04 0.04 0.04 0.03 0.03 0.02 0.03 0.03 0.03 0.03 0.05 0.06 0.06 0.04 0.04 0.04 0.05 0.06 0.06 0.05 0.04 0.03
0.01 0.00 0.00 0.01 0.01 0.01 0.03 0.04 0.05 0.05 0.04 0.03 0.02 0.02 0.02 0.02 0.03 0.03 0.03 0.03 0.03 0.04 0.06 0.05 0.04 0.04 0.02 0.02 0.03 0.03 0.03 0.06 0.08 0.07 0.04 0.04 0.06 0.07 0.08 0.08 0.05 0.04 0.04
0.01 0.01 0.01 0.02 0.01 0.01 0.01 0.02 0.04 0.05 0.05 0.03 0.02 0.01 0.01 0.02 0.03 0.03 0.02 0.03 0.03 0.04 0.06 0.05 0.04 0.04 0.03 0.02 0.03 0.03 0.04 0.07 0.08 0.08 0.11 0.09 0.07 0.06 0.08 0.09 0.07 0.05 0.05
0.03 0.02 0.02 0.02 0.02 0.03 0.02 0.02 0.03 0.03 0.03 0.03 0.02 0.01 0.02 0.02 0.02 0.02 0.02 0.04 0.04 0.05 0.06 0.06 0.05 0.06 0.03 0.02 0.03 0.05 0.05 0.07 0.06 0.06 0.09 0.07 0.06 0.06 0.08 0.09 0.07 0.05 0.04
0.11 0.05 0.03 0.03 0.02 0.02 0.03 0.02 0.03 0.03 0.03 0.03 0.02 0.02 0.02 0.01 0.01 0.01 0.02 0.04 0.05 0.05 0.07 0.07 0.09 0.08 0.05 0.05 0.04 0.05 0.06 0.06 0.05 0.05 0.06 0.05 0.04 0.05 0.05 0.05 0.06 0.05 0.04
0.09 0.04 0.03 0.04 0.03 0.04 0.04 0.04 0.03 0.04 0.03 0.03 0.03 0.02 0.01 0.02 0.03 0.03 0.03 0.03 0.03 0.04 0.08 0.07 0.07 0.06 0.05 0.04 0.04 0.04 0.06 0.07 0.04 0.04 0.04 0.05 0.04 0.04 0.05 0.05 0.06 0.06 0.04
0.06 0.03 0.04 0.05 0.05 0.06 0.05 0.04 0.03 0.03 0.03 0.03 0.02 0.03 0.03 0.03 0.04 0.04 0.04 0.04 0.04 0.05 0.09 0.07 0.05 0.06 0.07 0.08 0.07 0.06 0.08 0.08 0.05 0.04 0.03 0.04 0.04 0.05 0.06 0.05 0.06 0.06 0.04
0.04 0.03 0.04 0.04 0.04 0.04 0.04 0.04 0.04 0.03 0.04 0.04 0.03 0.05 0.06 0.04 0.03 0.04 0.03 0.04 0.05 0.08 0.12 0.10 0.07 0.09 0.13 0.14 0.13 0.09 0.09 0.07 0.07 0.06 0.04 0.05 0.05 0.06 0.06 0.05 0.06 0.07 0.06
0.05 0.03 0.02 0.03 0.03 0.03 0.03 0.05 0.03 0.02 0.03 0.06 0.08 0.07 0.05 0.04 0.04 0.03 0.04 0.07 0.10 0.15 0.17 0.12 0.10 0.11 0.12 0.11 0.13 0.11 0.07 0.05 0.05 0.05 0.05 0.06 0.07 0.07 0.07 0.05 0.05 0.05 0.06
0.03 0.03 0.02 0.02 0.03 0.03 0.03 0.04 0.03 0.03 0.06 0.04 0.07 0.10 0.08 0.04 0.03 0.03 0.05 0.12 0.16 0.20 0.16 0.09 0.08 0.06 0.08 0.07 0.10 0.10 0.06 0.05 0.05 0.07 0.07 0.08 0.10 0.09 0.07 0.05 0.04 0.04 0.05
0.01 0.01 0.01 0.01 0.02 0.03 0.03 0.04 0.07 0.10 0.10 0.05 0.04 0.05 0.06 0.05 0.04 0.04 0.06 0.09 0.10 0.10 0.07 0.05 0.04 0.02 0.04 0.03 0.05 0.05 0.05 0.06 0.06 0.08 0.09 0.12 0.10 0.08 0.08 0.05 0.04 0.04 0.05
0.01 0.01 0.01 0.01 0.01 0.02 0.03 0.04 0.09 0.16 0.09 0.04 0.04 0.05 0.07 0.07 0.05 0.05 0.04 0.04 0.03 0.02 0.02 0.02 0.02 0.02 0.03 0.02 0.03 0.03 0.03 0.04 0.06 0.06 0.06 0.12 0.09 0.07 0.06 0.05 0.03 0.03 0.04
0.01 0.01 0.01 0.01 0.01 0.01 0.02 0.03 0.07 0.09 0.05 0.03 0.02 0.03 0.05 0.06 0.04 0.04 0.04 0.04 0.04 0.04 0.03 0.02 0.02 0.03 0.03 0.01 0.01 0.03 0.03 0.03 0.03 0.04 0.05 0.04 0.06 0.06 0.06 0.06 0.05 0.04 0.05
0.01 0.01 0.01 0.01 0.00 0.01 0.01 0.01 0.03 0.03 0.02 0.02 0.03 0.03 0.03 0.02 0.02 0.03 0.02 0.03 0.04 0.06 0.07 0.06 0.04 0.04 0.02 0.02 0.03 0.03 0.02 0.02 0.02 0.03 0.05 0.05 0.06 0.06 0.08 0.08 0.07 0.05 0.04
0.01 0.01 0.01 0.03 0.02 0.01 0.01 0.01 0.01 0.01 0.01 0.01 0.02 0.03 0.02 0.01 0.02 0.02 0.02 0.01 0.02 0.04 0.07 0.09 0.10 0.07 0.04 0.05 0.06 0.04 0.03 0.02 0.03 0.04 0.05 0.05 0.06 0.06 0.08 0.08 0.08 0.07 0.05
0.02 0.01 0.01 0.01 0.02 0.01 0.01 0.01 0.01 0.01 0.01 0.02 0.02 0.01 0.01 0.01 0.02 0.02 0.02 0.01 0.01 0.02 0.06 0.11 0.15 0.14 0.08 0.06 0.06 0.04 0.04 0.04 0.04 0.06 0.06 0.08 0.09 0.09 0.09 0.09 0.11 0.09 0.07
0.02 0.01 0.01 0.01 0.01 0.01 0.01 0.01 0.01 0.01 0.01 0.01 0.02 0.03 0.02 0.01 0.01 0.01 0.02 0.02 0.02 0.02 0.02 0.03 0.07 0.12 0.13 0.09 0.08 0.07 0.06 0.05 0.05 0.06 0.06 0.09 0.11 0.13 0.15 0.14 0.13 0.12 0.10
0.01 0.01 0.01 0.00 0.00 0.00 0.00 0.00 0.01 0.01 0.01 0.01 0.01 0.02 0.02 0.02 0.02 0.01 0.02 0.02 0.03 0.02 0.02 0.02 0.03 0.05 0.07 0.07 0.08 0.08 0.07 0.06 0.06 0.05 0.05 0.07 0.10 0.13 0.13 0.12 0.10 0.10 0.09
0.01 0.00 0.00 0.00 0.00 0.00 0.00 0.01 0.01 0.01 0.01 0.01 0.01 0.01 0.02 0.03 0.03 0.02 0.02 0.01 0.02 0.01 0.02 0.03 0.02 0.03 0.03 0.04 0.06 0.06 0.06 0.07 0.07 0.07 0.08 0.08 0.11 0.17 0.15 0.10 0.09 0.10 0.07
0.00 0.00 0.00 0.00 0.00 0.00 0.01 0.01 0.01 0.01 0.01 0.01 0.01 0.01 0.01 0.02 0.04 0.04 0.03 0.02 0.03 0.03 0.03 0.04 0.03 0.03 0.03 0.06 0.07 0.07 0.07 0.07 0.07 0.08 0.09 0.11 0.09 0.13 0.14 0.11 0.10 0.10 0.07
0.01 0.01 0.02 0.02 0.01 0.01 0.01 0.01 0.01 0.01 0.01 0.01 0.01 0.02 0.03 0.02 0.03 0.04 0.03 0.03 0.04 0.04 0.05 0.05 0.04 0.05 0.05 0.06 0.06 0.06 0.05 0.06 0.08 0.06 0.06 0.09 0.09 0.11 0.12 0.09 0.07 0.08 0.09
0.02 0.02 0.02 0.02 0.02 0.02 0.02 0.02 0.02 0.02 0.02 0.02 0.02 0.03 0.03 0.03 0.03 0.03 0.03 0.03 0.04 0.05 0.05 0.06 0.05 0.06 0.07 0.05 0.05 0.05 0.05 0.05 0.06 0.06 0.05 0.05 0.05 0.08 0.11 0.10 0.08 0.08 0.10
0.02 0.03 0.03 0.03 0.03 0.03 0.03 0.04 0.04 0.03 0.03 0.02 0.02 0.04 0.03 0.03 0.05 0.06 0.04 0.03 0.04 0.05 0.05 0.06 0.06 0.07 0.07 0.05 0.05 0.05 0.05 0.07 0.07 0.07 0.07 0.04 0.05 0.07 0.09 0.10 0.11 0.11 0.08
MSLP
1002.87 1002.00 1001.46 1001.29 1001.41 1001.71 1002.06 1002.35 1002.53 1002.59 1002.58 1002.57 1002.64 1002.84 1003.20 1003.69 1004.25 1004.81 1005.30 1005.71 1006.01 1006.26 1006.48 1006.74 1007.05 1007.44 1007.88 1008.34 1008.79 1009.20 1009.56 1009.89 1010.19 1010.49 1010.81 1011.15 1011.50 1011.83 1012.13 1012.38 1012.58 1012.75 1012.91
1002.16 1001.43 1001.04 1001.00 1001.22 1001.56 1001.91 1002.17 1002.29 1002.30 1002.24 1002.22 1002.31 1002.56 1002.97 1003.50 1004.09 1004.67 1005.16 1005.54 1005.82 1006.04 1006.25 1006.49 1006.79 1007.18 1007.61 1008.07 1008.51 1008.93 1009.30 1009.63 1009.95 1010.28 1010.63 1010.98 1011.34 1011.67 1011.96 1012.21 1012.41 1012.59 1012.76
1001.45 1000.89 1000.68 1000.78 1001.09 1001.49 1001.84 1002.06 1002.13 1002.08 1001.98 1001.94 1002.02 1002.28 1002.71 1003.26 1003.85 1004.41 1004.88 1005.24 1005.49 1005.69 1005.88 1006.12 1006.42 1006.81 1007.25 1007.72 1008.17 1008.60 1008.99 1009.35 1009.70 1010.06 1010.43 1010.81 1011.17 1011.50 1011.78 1012.01 1012.21 1012.39 1012.57
1000.85 1000.48 1000.44 1000.67 1001.06 1001.48 1001.81 1001.97 1001.97 1001.84 1001.69 1001.61 1001.67 1001.92 1002.35 1002.89 1003.47 1004.02 1004.47 1004.80 1005.05 1005.24 1005.44 1005.68 1006.01 1006.41 1006.86 1007.34 1007.80 1008.25 1008.66 1009.06 1009.44 1009.84 1010.24 1010.63 1010.99 1011.31 1011.58 1011.80 1011.98 1012.16 1012.36
1000.47 1000.27 1000.37 1000.69 1001.12 1001.51 1001.76 1001.83 1001.71 1001.49 1001.26 1001.12 1001.16 1001.40 1001.82 1002.36 1002.95 1003.49 1003.94 1004.29 1004.55 1004.76 1004.99 1005.27 1005.62 1006.04 1006.50 1006.99 1007.46 1007.91 1008.34 1008.76 1009.17 1009.60 1010.02 1010.42 1010.79 1011.10 1011.36 1011.56 1011.74 1011.92 1012.14
1000.39 1000.32 1000.50 1000.85 1001.23 1001.53 1001.64 1001.56 1001.29 1000.94 1000.61 1000.41 1000.43 1000.66 1001.10 1001.67 1002.28 1002.86 1003.36 1003.75 1004.06 1004.33 1004.61 1004.93 1005.32 1005.76 1006.23 1006.70 1007.17 1007.61 1008.04 1008.46 1008.89 1009.33 1009.76 1010.18 1010.55 1010.86 1011.11 1011.31 1011.49 1011.68 1011.92
1000.61 1000.62 1000.82 1001.12 1001.39 1001.51 1001.43 1001.14 1000.69 1000.19 999.76 999.50 999.50 999.76 1000.24 1000.87 1001.55 1002.20 1002.77 1003.24 1003.64 1003.98 1004.33 1004.71 1005.12 1005.57 1006.03 1006.49 1006.93 1007.34 1007.75 1008.15 1008.58 1009.02 1009.46 1009.88 1010.26 1010.58 1010.83 1011.04 1011.23 1011.44 1011.70
1001.08 1001.12 1001.28 1001.47 1001.56 1001.46 1001.14 1000.62 999.97 999.31 998.78 998.48 998.49 998.79 999.34 1000.05 1000.82 1001.57 1002.24 1002.81 1003.29 1003.72 1004.13 1004.56 1004.99 1005.44 1005.89 1006.31 1006.70 1007.08 1007.44 1007.82 1008.23 1008.66 1009.10 1009.53 1009.92 1010.25 1010.52 1010.75 1010.96 1011.19 1011.47
1001.73 1001.75 1001.84 1001.87 1001.75 1001.42 1000.85 1000.09 999.25 998.45 997.84 997.52 997.55 997.90 998.53 999.33 1000.20 1001.04 1001.80 1002.45 1003.01 1003.50 1003.96 1004.41 1004.86 1005.30 1005.71 1006.10 1006.45 1006.78 1007.11 1007.46 1007.84 1008.25 1008.70 1009.13 1009.54 1009.90 1010.19 1010.44 1010.68 1010.93 1011.22
1002.45 1002.43 1002.42 1002.30 1001.98 1001.43 1000.64 999.69 998.70 997.80 997.13 996.81 996.86 997.27 997.95 998.82 999.75 1000.65 1001.46 1002.16 1002.75 1003.26 1003.73 1004.18 1004.63 1005.05 1005.45 1005.81 1006.13 1006.43 1006.73 1007.05 1007.42 1007.82 1008.26 1008.70 1009.12 1009.51 1009.83 1010.12 1010.38 1010.65 1010.95
1003.13 1003.08 1002.98 1002.73 1002.26 1001.55 1000.61 999.54 998.45 997.50 996.82 996.50 996.57 997.01 997.72 998.60 999.53 1000.43 1001.22 1001.89 1002.46 1002.95 1003.39 1003.82 1004.24 1004.65 1005.04 1005.40 1005.73 1006.03 1006.32 1006.64 1006.99 1007.38 1007.81 1008.26 1008.69 1009.09 1009.45 1009.77 1010.06 1010.34 1010.64
1003.70 1003.63 1003.48 1003.15 1002.61 1001.81 1000.82 999.71 998.61 997.66 996.99 996.69 996.77 997.19 997.87 998.69 999.56 1000.37 1001.07 1001.65 1002.13 1002.53 1002.91 1003.29 1003.68 1004.09 1004.49 1004.88 1005.24 1005.58 1005.91 1006.24 1006.59 1006.97 1007.38 1007.81 1008.24 1008.65 1009.02 1009.36 1009.68 1009.98 1010.28
1004.13 1004.05 1003.88 1003.54 1002.99 1002.22 1001.26 1000.20 999.16 998.28 997.65 997.37 997.43 997.79 998.38 999.08 999.80 1000.46 1001.00 1001.43 1001.75 1002.04 1002.32 1002.63 1002.99 1003.41 1003.85 1004.30 1004.73 1005.14 1005.51 1005.88 1006.23 1006.60 1006.98 1007.37 1007.77 1008.16 1008.54 1008.89 1009.22 1009.54 1009.85
1004.41 1004.33 1004.18 1003.88 1003.39 1002.71 1001.87 1000.95 1000.04 999.26 998.70 998.43 998.45 998.72 999.16 999.70 1000.22 1000.67 1001.01 1001.24 1001.39 1001.52 1001.69 1001.93 1002.27 1002.69 1003.19 1003.72 1004.25 1004.74 1005.19 1005.59 1005.96 1006.29 1006.62 1006.95 1007.29 1007.63 1007.98 1008.32 1008.67 1009.01 1009.34
1004.57 1004.49 1004.36 1004.13 1003.76 1003.23 1002.57 1001.83 1001.09 1000.45 999.97 999.71 999.67 999.82 1000.10 1000.44 1000.74 1000.97 1001.09 1001.12 1001.10 1001.08 1001.14 1001.31 1001.61 1002.06 1002.62 1003.23 1003.86 1004.45 1004.97 1005.41 1005.76 1006.05 1006.31 1006.54 1006.79 1007.05 1007.34 1007.67 1008.01 1008.37 1008.75
1004.66 1004.56 1004.45 1004.29 1004.05 1003.69 1003.24 1002.71 1002.16 1001.66 1001.27 1001.01 1000.91 1000.94 1001.06 1001.20 1001.30 1001.32 1001.25 1001.11 1000.94 1000.80 1000.76 1000.87 1001.16 1001.62 1002.22 1002.91 1003.62 1004.28 1004.86 1005.32 1005.66 1005.89 1006.04 1006.16 1006.29 1006.45 1006.66 1006.94 1007.28 1007.67 1008.09
1004.76 1004.60 1004.49 1004.38 1004.25 1004.06 1003.80 1003.47 1003.11 1002.75 1002.43 1002.18 1002.03 1001.94 1001.91 1001.89 1001.83 1001.71 1001.50 1001.25 1000.98 1000.76 1000.65 1000.71 1000.96 1001.42 1002.05 1002.78 1003.54 1004.26 1004.88 1005.34 1005.64 1005.79 1005.84 1005.83 1005.82 1005.86 1005.99 1006.21 1006.53 1006.94 1007.41
1004.94 1004.70 1004.54 1004.45 1004.39 1004.32 1004.22 1004.07 1003.87 1003.62 1003.37 1003.13 1002.92 1002.75 1002.61 1002.48 1002.32 1002.11 1001.85 1001.54 1001.23 1000.97 1000.82 1000.84 1001.06 1001.50 1002.12 1002.86 1003.63 1004.37 1004.99 1005.44 1005.69 1005.77 1005.70 1005.57 1005.43 1005.36 1005.39 1005.55 1005.85 1006.27 1006.77
1005.27 1004.92 1004.68 1004.55 1004.52 1004.53 1004.55 1004.52 1004.44 1004.28 1004.07 1003.83 1003.59 1003.36 1003.15 1002.96 1002.76 1002.54 1002.27 1001.98 1001.68 1001.42 1001.26 1001.25 1001.43 1001.82 1002.40 1003.10 1003.85 1004.57 1005.17 1005.59 1005.81 1005.81 1005.66 1005.43 1005.18 1005.00 1004.94 1005.04 1005.31 1005.72 1006.25
1005.80 1005.31 1004.97 1004.78 1004.73 1004.77 1004.84 1004.89 1004.88 1004.78 1004.60 1004.35 1004.08 1003.82 1003.58 1003.37 1003.18 1002.99 1002.78 1002.55 1002.30 1002.08 1001.92 1001.89 1002.02 1002.34 1002.84 1003.47 1004.16 1004.83 1005.40 1005.79 1005.96 1005.93 1005.72 1005.42 1005.09 1004.83 1004.70 1004.74 1004.96 1005.36 1005.89
1006.52 1005.91 1005.45 1005.18 1005.08 1005.10 1005.19 1005.27 1005.29 1005.22 1005.04 1004.79 1004.50 1004.21 1003.97 1003.77 1003.62 1003.49 1003.36 1003.21 1003.04 1002.87 1002.72 1002.66 1002.73 1002.97 1003.37 1003.90 1004.51 1005.11 1005.63 1005.99 1006.15 1006.10 1005.87 1005.54 1005.17 1004.86 1004.68 1004.67 1004.85 1005.20 1005.70
1007.42 1006.71 1006.15 1005.79 1005.62 1005.59 1005.66 1005.74 1005.76 1005.69 1005.51 1005.24 1004.94 1004.64 1004.39 1004.21 1004.10 1004.05 1004.00 1003.94 1003.85 1003.72 1003.59 1003.50 1003.51 1003.64 1003.93 1004.35 1004.86 1005.38 1005.85 1006.18 1006.34 1006.30 1006.09 1005.76 1005.39 1005.07 1004.85 1004.80 1004.92 1005.22 1005.65
1008.45 1007.67 1007.03 1006.59 1006.35 1006.26 1006.29 1006.34 1006.34 1006.26 1006.06 1005.78 1005.46 1005.15 1004.90 1004.73 1004.66 1004.66 1004.68 1004.69 1004.66 1004.57 1004.45 1004.33 1004.27 1004.31 1004.49 1004.79 1005.19 1005.62 1006.03 1006.34 1006.50 1006.49 1006.31 1006.02 1005.69 1005.37 1005.14 1005.05 1005.11 1005.34 1005.68
1009.52 1008.72 1008.04 1007.53 1007.22 1007.08 1007.05 1007.06 1007.03 1006.93 1006.72 1006.43 1006.09 1005.77 1005.51 1005.36 1005.30 1005.32 1005.39 1005.44 1005.44 1005.38 1005.26 1005.11 1004.99 1004.94 1005.01 1005.20 1005.48 1005.83 1006.17 1006.45 1006.62 1006.63 1006.50 1006.26 1005.97 1005.68 1005.45 1005.32 1005.33 1005.47 1005.70
1010.56 1009.78 1009.08 1008.53 1008.17 1007.96 1007.88 1007.84 1007.79 1007.67 1007.45 1007.15 1006.81 1006.48 1006.22 1006.05 1005.99 1006.02 1006.09 1006.16 1006.17 1006.11 1005.99 1005.82 1005.65 1005.53 1005.50 1005.58 1005.76 1006.01 1006.28 1006.52 1006.67 1006.70 1006.61 1006.42 1006.17 1005.91 1005.69 1005.54 1005.49 1005.53 1005.66
1011.53 1010.79 1010.09 1009.52 1009.11 1008.85 1008.71 1008.63 1008.55 1008.41 1008.19 1007.89 1007.56 1007.24 1006.97 1006.80 1006.72 1006.73 1006.78 1006.83 1006.84 1006.78 1006.64 1006.45 1006.25 1006.07 1005.96 1005.95 1006.03 1006.19 1006.38 1006.55 1006.67 1006.70 1006.63 1006.48 1006.27 1006.04 1005.82 1005.65 1005.55 1005.51 1005.53
Thickness
5783 5786 5786 5786 5786 5786 5785 5785 5784 5783 5782 5780 5779 5778 5777 5776 5776 5775 5774 5773 5772 5771 5770 5770 5769 5769 5769 5769 5768 5768 5767 5766 5766 5765 5764 5764 5763 5762 5761 5760 5760 5759 5758
5789 5788 5787 5787 5786 5785 5785 5784 5783 5782 5781 5780 5779 5778 5777 5776 5775 5775 5774 5773 5771 5770 5769 5768 5768 5768 5767 5767 5767 5767 5766 5765 5765 5764 5764 5763 5762 5761 5760 5760 5759 5758 5758
5791 5789 5788 5787 5786 5785 5784 5784 5783 5781 5780 5779 5779 5778 5777 5776 5775 5774 5773 5772 5771 5769 5768 5768 5767 5767 5766 5766 5766 5765 5765 5765 5764 5764 5763 5762 5761 5761 5760 5759 5759 5758 5757
5792 5790 5788 5787 5786 5785 5784 5783 5782 5781 5780 5779 5778 5777 5776 5776 5775 5774 5773 5771 5770 5769 5768 5767 5767 5766 5766 5765 5764 5764 5764 5763 5763 5763 5762 5761 5761 5760 5760 5759 5758 5758 5757
5792 5790 5789 5787 5786 5785 5784 5783 5782 5781 5780 5779 5778 5777 5776 5775 5774 5773 5772 5771 5770 5768 5767 5766 5766 5765 5765 5764 5764 5763 5763 5762 5762 5762 5761 5761 5760 5760 5759 5759 5758 5757 5757
5791 5790 5788 5787 5785 5785 5784 5783 5782 5780 5779 5778 5778 5777 5776 5775 5774 5773 5772 5771 5769 5768 5767 5766 5766 5765 5765 5764 5763 5763 5763 5762 5762 5762 5761 5761 5760 5760 5759 5758 5758 5757 5756
5792 5790 5788 5787 5786 5785 5784 5783 5782 5780 5779 5778 5777 5776 5776 5775 5774 5773 5772 5771 5769 5768 5767 5766 5766 5765 5764 5764 5763 5763 5762 5762 5761 5761 5761 5761 5760 5759 5759 5758 5757 5757 5756
5793 5791 5789 5787 5786 5785 5784 5783 5782 5781 5779 5778 5777 5776 5776 5775 5774 5773 5772 5771 5770 5769 5767 5767 5766 5765 5765 5764 5763 5763 5762 5762 5761 5761 5761 5760 5760 5760 5759 5758 5757 5756 5755
5794 5791 5789 5787 5786 5784 5783 5783 5782 5781 5780 5779 5778 5777 5776 5774 5773 5772 5771 5771 5770 5769 5768 5767 5767 5766 5765 5764 5763 5763 5762 5762 5761 5760 5760 5760 5760 5759 5758 5758 5757 5755 5754
5791 5790 5788 5787 5786 5784 5783 5782 5782 5780 5780 5779 5778 5777 5775 5774 5773 5772 5771 5771 5770 5769 5768 5767 5767 5767 5766 5765 5764 5763 5762 5761 5760 5760 5760 5760 5760 5759 5758 5757 5756 5755 5754
5789 5789 5788 5787 5785 5784 5782 5781 5781 5780 5779 5778 5778 5776 5774 5773 5772 5771 5771 5770 5769 5768 5767 5767 5767 5767 5766 5764 5764 5763 5762 5761 5760 5759 5759 5760 5759 5759 5758 5757 5756 5755 5754
5786 5787 5787 5786 5785 5783 5782 5781 5779 5778 5777 5777 5776 5774 5773 5771 5771 5771 5770 5770 5769 5768 5767 5766 5766 5765 5764 5764 5763 5763 5762 5761 5760 5758 5759 5759 5759 5758 5757 5756 5756 5755 5754
5789 5788 5787 5786 5785 5783 5782 5780 5778 5776 5775 5774 5773 5772 5771 5770 5769 5769 5769 5768 5767 5766 5766 5765 5764 5764 5763 5763 5763 5762 5761 5761 5760 5758 5758 5758 5758 5757 5757 5756 5755 5755 5754
5789 5787 5788 5787 5785 5783 5781 5779 5777 5775 5774 5772 5771 5770 5769 5768 5767 5767 5767 5767 5766 5765 5765 5764 5763 5763 5763 5762 5762 5762 5761 5760 5759 5758 5758 5758 5757 5757 5757 5756 5756 5755 5753
5788 5788 5788 5787 5785 5783 5781 5778 5776 5774 5772 5771 5770 5769 5768 5767 5766 5765 5765 5765 5764 5764 5763 5762 5762 5762 5761 5761 5760 5760 5760 5759 5758 5758 5758 5756 5756 5756 5756 5756 5755 5754 5753
5789 5788 5788 5786 5785 5783 5780 5778 5776 5774 5772 5771 5769 5769 5768 5767 5765 5764 5763 5763 5763 5762 5762 5761 5760 5760 5760 5759 5759 5759 5758 5758 5758 5757 5757 5756 5756 5755 5755 5755 5755 5754 5753
5790 5789 5788 5787 5785 5782 5780 5778 5776 5773 5771 5770 5768 5768 5767 5766 5764 5763 5762 5761 5761 5761 5760 5759 5758 5757 5757 5757 5756 5756 5757 5757 5757 5756 5756 5755 5755 5755 5755 5755 5754 5753 5752
5790 5788 5787 5787 5783 5781 5779 5777 5775 5773 5771 5769 5768 5767 5766 5765 5763 5762 5760 5759 5759 5759 5758 5757 5755 5754 5753 5753 5753 5754 5755 5755 5755 5755 5754 5754 5754 5754 5754 5754 5753 5752 5751
5791 5789 5786 5785 5782 5780 5778 5776 5774 5771 5769 5768 5766 5765 5765 5764 5762 5760 5758 5757 5757 5756 5755 5755 5753 5751 5749 5749 5750 5751 5752 5752 5752 5753 5752 5752 5752 5752 5752 5752 5751 5751 5750
5792 5789 5786 5783 5781 5778 5776 5773 5770 5768 5766 5765 5764 5764 5763 5762 5760 5758 5756 5755 5754 5753 5751 5750 5749 5748 5747 5746 5747 5748 5748 5749 5750 5750 5750 5750 5750 5750 5750 5749 5749 5748 5748
5790 5787 5784 5781 5779 5776 5773 5769 5765 5763 5762 5762 5762 5761 5760 5759 5757 5756 5754 5753 5751 5749 5748 5747 5745 5743 5742 5743 5741 5739 5742 5745 5745 5746 5747 5747 5747 5747 5747 5746 5746 5745 5745
5789 5786 5783 5781 5778 5776 5773 5770 5767 5763 5761 5760 5759 5759 5758 5757 5755 5754 5752 5750 5749 5746 5745 5743 5741 5739 5739 5740 5736 5732 5729 5732 5738 5743 5742 5742 5743 5743 5743 5743 5743 5743 5742
5788 5785 5784 5780 5778 5776 5773 5769 5765 5761 5758 5756 5755 5754 5755 5754 5753 5751 5750 5748 5746 5744 5741 5740 5739 5736 5733 5735 5735 5730 5724 5722 5727 5733 5736 5738 5738 5738 5739 5740 5740 5739 5739
5787 5786 5783 5779 5777 5774 5771 5767 5762 5756 5752 5752 5752 5752 5752 5751 5750 5748 5747 5745 5743 5741 5739 5737 5736 5734 5732 5729 5731 5732 5730 5728 5722 5721 5727 5731 5733 5733 5734 5736 5735 5735 5735
5788 5785 5782 5778 5775 5773 5770 5766 5761 5756 5754 5752 5751 5749 5748 5747 5746 5745 5744 5742 5740 5738 5736 5734 5733 5731 5729 5727 5726 5726 5726 5726 5724 5719 5717 5721 5725 5728 5729 5730 5730 5730 5730
5787 5783 5780 5776 5772 5770 5767 5764 5759 5755 5752 5749 5747 5745 5744 5743 5743 5742 5741 5739 5737 5735 5733 5731 5730 5727 5726 5724 5723 5723 5721 5720 5719 5717 5714 5714 5716 5720 5724 5725 5725 5725 5725